Wind_Speed
62 61 60 63 59 55 51 52 53 53 49 47 44 35 27 37 38 42 33 22 18 14 8 4 4 4 3 4 5 13 23 19 19 20 17 15 16 16 16 18 18 18 17 15
64 62 66 67 64 60 54 54 54 52 48 46 43 40 46 47 38 31 27 24 19 15 9 4 5 5 7 7 8 14 22 22 22 22 18 16 13 12 13 15 15 16 14 11
67 70 70 68 67 64 61 61 59 55 49 46 42 36 32 17 30 31 29 24 19 16 11 6 6 4 9 9 10 15 20 21 23 21 19 16 14 10 10 11 12 12 11 10
72 73 73 71 69 70 68 68 64 61 51 48 43 38 29 34 32 33 29 24 20 19 15 11 8 6 9 11 14 15 16 20 20 19 19 19 17 14 10 8 8 7 8 9
80 79 75 75 74 73 72 73 70 67 58 55 46 40 38 35 35 34 31 27 23 19 17 13 10 7 10 11 14 15 15 17 20 19 23 23 21 14 10 6 4 4 3 5
86 87 83 82 79 77 77 76 76 72 69 57 53 47 42 37 36 38 35 29 27 23 19 16 15 9 9 11 11 17 18 17 21 22 25 26 21 17 14 9 4 5 3 2
89 91 90 89 86 85 80 80 78 79 77 60 61 54 48 45 44 43 41 35 32 27 23 21 20 14 15 12 12 8 17 21 21 23 23 25 24 23 20 13 8 6 6 5
88 88 93 93 91 90 88 86 82 79 79 66 69 58 53 54 51 47 45 39 35 30 28 28 23 20 17 16 13 15 12 18 21 22 22 23 25 24 24 17 12 9 9 9
92 93 90 90 94 95 89 96 83 84 83 78 75 72 64 62 58 55 47 45 38 39 37 32 27 25 23 19 19 16 19 18 18 17 17 23 24 24 23 21 19 15 12 13
97 93 98 95 93 91 98 94 95 93 87 81 82 78 68 67 64 62 59 52 50 47 43 36 34 31 27 23 18 18 19 22 22 19 16 20 24 25 24 25 26 23 21 19
103 97 98 97 93 97 99 96 103 100 95 87 84 82 78 74 71 69 65 63 57 55 49 44 41 34 30 26 23 18 21 23 24 26 24 20 22 23 23 24 25 24 23 20
103 100 105 102 99 103 105 101 104 107 101 94 89 91 86 83 77 73 74 69 63 60 56 52 47 40 35 32 28 23 23 24 27 29 30 28 23 22 23 24 23 23 24 22
101 93 100 108 107 108 104 101 103 100 103 102 97 91 91 89 82 77 78 73 69 65 62 57 50 41 39 36 32 29 28 26 28 30 30 29 27 24 25 26 26 27 25 24
91 94 96 104 111 117 113 111 111 112 107 106 102 101 99 91 85 81 83 79 76 72 67 61 54 47 43 40 38 34 31 28 28 30 31 31 29 29 28 24 26 28 27 26
86 88 93 97 106 108 108 108 112 106 107 106 107 109 102 95 91 88 92 85 83 76 69 65 57 53 49 45 41 37 33 31 31 31 32 32 30 29 28 27 26 28 29 28
73 77 88 91 99 99 102 109 111 112 106 108 105 106 108 104 98 99 99 95 81 75 72 66 65 60 52 49 47 43 39 36 35 35 37 39 35 31 31 32 30 30 31 32
67 70 78 83 94 97 102 104 108 113 113 110 109 104 111 108 102 103 102 93 81 80 72 71 68 61 57 54 51 49 45 40 38 37 35 35 32 31 32 30 30 31 33 32
58 67 76 79 88 94 88 96 104 111 115 114 112 117 116 116 114 101 98 90 87 86 79 77 74 67 61 57 53 51 47 45 43 40 37 35 34 37 37 33 32 32 31 32
52 60 69 76 85 83 82 100 103 106 109 114 117 118 116 119 117 101 100 98 96 88 83 79 76 70 65 62 60 57 53 50 46 43 40 38 36 36 37 39 38 37 34 33
45 52 60 70 73 78 83 87 93 99 106 117 120 120 121 123 117 109 109 106 100 92 87 81 78 73 70 68 65 61 58 54 52 48 45 41 39 37 37 37 37 36 35 34
32 45 53 60 65 70 78 82 82 89 101 109 115 116 117 119 117 119 110 106 101 95 89 84 80 76 75 71 68 65 62 59 60 55 47 43 40 38 38 37 36 35 35 36
21 34 45 51 59 62 62 64 72 80 93 102 111 120 119 121 113 112 110 105 101 97 92 87 83 79 78 75 71 70 67 68 63 58 52 48 43 40 38 38 36 37 36 38
17 22 30 40 46 51 57 66 71 76 85 95 108 117 120 118 115 119 113 108 103 100 95 90 85 82 81 77 73 72 71 67 62 59 55 52 46 43 41 39 39 39 39 38
11 18 22 29 38 45 53 60 67 73 81 91 104 111 115 114 122 123 116 110 105 103 97 92 89 84 81 78 75 73 69 68 64 60 58 56 50 48 46 44 42 42 41 40
6 10 19 25 30 37 47 57 64 71 78 84 94 108 112 120 125 123 117 112 107 101 97 93 90 87 82 80 77 76 73 70 66 62 61 59 56 55 51 48 46 44 43 42
9 7 14 20 26 33 38 49 60 67 73 83 97 106 112 118 122 122 117 113 110 101 98 95 92 87 84 81 79 78 74 70 65 64 62 62 60 57 55 51 50 49 47 46
Wind_Direction
232 229 230 228 229 230 233 234 237 239 240 241 243 237 191 260 259 267 263 229 212 219 226 238 255 203 153 143 176 174 184 175 173 161 156 150 144 135 120 109 105 97 90 93
232 233 232 230 229 229 229 234 235 236 236 237 238 236 235 249 253 246 229 214 209 211 224 229 227 195 156 154 162 173 178 180 177 171 166 163 157 141 122 109 101 95 92 97
232 231 234 232 230 229 228 231 234 233 232 232 230 227 224 240 230 224 218 213 207 201 202 188 219 199 153 149 151 177 177 177 174 180 179 172 168 158 141 116 105 97 93 92
234 233 234 233 232 230 228 230 231 234 229 229 224 218 219 212 219 219 215 217 207 195 190 182 196 213 170 167 153 185 186 178 175 183 187 181 178 179 169 148 125 105 94 93
236 234 233 233 233 231 230 229 230 232 230 228 225 218 215 209 212 220 217 212 213 201 189 189 196 203 193 165 166 163 197 186 181 180 185 188 184 181 185 177 157 124 103 79
236 234 234 233 232 232 231 229 229 230 230 225 224 218 215 211 211 221 218 212 213 204 192 193 196 213 200 196 184 177 175 195 192 192 191 191 191 186 180 184 189 183 220 187
237 236 233 231 232 231 231 232 228 228 232 225 228 217 214 212 212 214 218 211 212 207 202 197 199 207 205 220 202 191 187 185 199 203 202 200 200 202 204 218 235 231 252 257
237 236 234 234 231 231 229 231 229 225 228 224 226 219 214 213 212 214 218 214 213 214 213 206 201 208 206 212 217 198 197 197 194 205 206 206 212 215 218 225 234 233 249 270
239 236 233 233 233 232 230 230 229 228 225 222 224 223 214 213 211 212 216 213 213 218 215 214 209 205 210 213 220 227 208 198 199 200 212 214 216 221 227 232 236 245 255 262
241 237 237 233 231 231 231 228 228 227 223 222 222 224 217 216 212 214 214 212 210 215 219 216 211 207 210 216 223 225 216 209 203 193 200 214 224 227 232 237 242 251 254 253
239 238 238 233 232 229 229 228 227 225 223 219 220 221 220 216 214 214 214 215 210 217 219 217 214 213 211 212 221 232 224 219 211 204 195 203 218 221 224 232 238 243 245 246
238 235 236 237 233 230 228 226 227 225 222 219 219 221 218 218 214 213 216 215 213 216 218 219 215 214 210 214 215 227 227 228 221 216 211 203 205 220 222 227 233 238 240 243
241 238 234 235 232 233 229 226 228 228 223 219 218 219 221 219 216 215 217 216 215 215 219 221 220 216 214 215 215 216 221 229 233 226 217 216 207 213 225 227 231 235 238 239
239 237 235 234 231 230 228 224 222 221 219 217 217 217 220 217 214 216 219 215 216 216 218 221 220 218 219 216 217 217 216 222 231 234 233 219 214 216 221 225 237 240 238 240
237 234 233 232 232 227 229 227 226 222 220 219 213 215 218 216 213 213 220 215 216 217 219 222 221 219 219 218 219 220 217 217 224 228 229 225 226 229 231 223 232 243 247 243
238 233 232 231 232 227 227 225 223 222 218 218 217 216 216 216 213 212 216 217 215 216 217 218 219 219 219 218 220 220 217 217 221 222 228 232 239 245 245 230 220 231 241 247
232 229 230 227 229 228 222 222 222 222 217 214 214 213 216 217 215 214 215 218 212 216 213 218 223 223 218 219 220 222 220 218 221 224 228 233 234 239 234 231 228 225 232 239
231 227 226 224 225 226 222 222 220 219 216 212 208 213 212 212 215 212 218 217 214 216 212 216 217 218 219 220 221 224 224 220 220 223 226 233 232 230 234 235 237 239 239 238
231 226 225 224 224 223 220 220 217 216 214 210 207 210 211 212 213 208 214 215 215 214 214 214 218 219 217 218 220 222 223 223 223 223 224 227 232 235 233 236 238 242 247 245
226 226 223 224 225 223 221 220 216 215 213 210 206 208 208 210 211 207 210 211 213 211 216 214 216 217 217 217 219 220 222 222 225 225 226 226 229 233 239 239 239 243 245 246
219 221 222 222 222 222 220 219 214 212 213 210 206 207 210 210 207 210 211 211 210 210 213 214 215 217 218 218 219 220 220 223 225 228 228 228 232 233 237 245 247 244 244 244
208 213 217 218 219 218 219 218 212 210 212 210 205 204 206 209 205 208 211 211 210 209 210 213 214 217 219 219 219 221 221 222 224 227 229 230 232 235 238 242 246 247 245 245
208 209 212 214 215 213 209 209 206 204 207 208 205 203 204 205 200 207 209 210 209 210 209 212 214 216 219 220 221 223 224 225 226 228 230 233 233 235 239 242 246 249 251 252
212 206 200 209 212 209 204 203 202 199 202 205 203 201 202 201 200 205 206 210 208 209 209 210 214 215 219 222 223 225 227 227 227 229 232 236 236 236 238 242 244 247 250 252
171 183 186 193 202 202 201 200 196 197 198 201 199 200 200 199 200 204 205 209 211 209 209 211 214 215 217 221 224 226 226 226 226 228 231 236 236 238 239 243 245 246 248 252
95 149 173 175 183 188 193 194 192 194 196 197 195 198 198 198 200 204 207 208 210 209 209 211 214 216 218 221 223 227 227 227 228 230 233 236 237 240 242 243 245 247 248 250
Height
10885 10893 10897 10900 10908 10914 10920 10925 10932 10940 10952 10961 10969 10981 10986 10971 10974 10982 10985 10985 10985 10985 10985 10985 10984 10984 10984 10984 10984 10986 10990 10994 10997 11000 11003 11005 11007 11008 11009 11009 11009 11009 11008 11009
10874 10881 10879 10888 10897 10904 10910 10914 10920 10929 10942 10951 10961 10968 10974 10972 10974 10978 10980 10981 10982 10983 10984 10984 10983 10983 10983 10984 10984 10987 10989 10993 10996 11000 11003 11006 11007 11008 11009 11010 11011 11011 11012 11012
10857 10860 10865 10875 10885 10892 10898 10902 10907 10918 10930 10939 10950 10959 10965 10977 10974 10973 10975 10976 10978 10981 10982 10983 10983 10983 10983 10984 10986 10988 10990 10993 10996 11000 11004 11007 11009 11010 11011 11012 11013 11014 11015 11014
10840 10844 10850 10859 10870 10876 10885 10888 10896 10905 10920 10928 10938 10947 10955 10963 10968 10968 10970 10972 10975 10976 10979 10980 10982 10982 10983 10984 10985 10988 10990 10993 10996 11000 11003 11007 11010 11011 11013 11014 11015 11016 11017 11017
10822 10826 10835 10843 10851 10859 10869 10875 10884 10892 10908 10916 10930 10939 10947 10953 10959 10961 10964 10967 10971 10973 10976 10978 10981 10982 10983 10983 10984 10987 10991 10993 10996 10999 11002 11005 11008 11011 11013 11016 11017 11018 11018 11018
10794 10804 10816 10824 10832 10843 10849 10860 10871 10879 10891 10906 10920 10929 10936 10944 10950 10952 10957 10962 10966 10969 10972 10975 10978 10981 10982 10983 10983 10985 10987 10993 10996 10997 11000 11003 11008 11011 11013 11015 11017 11019 11020 11019
10766 10780 10790 10801 10812 10822 10833 10840 10854 10865 10873 10902 10903 10918 10928 10934 10938 10943 10949 10955 10960 10965 10969 10971 10974 10978 10980 10982 10983 10985 10986 10988 10993 10995 10999 11002 11005 11009 11011 11014 11016 11018 11021 11021
10746 10755 10764 10778 10792 10800 10813 10821 10835 10851 10860 10883 10888 10907 10918 10920 10926 10935 10942 10949 10954 10960 10964 10966 10969 10974 10977 10979 10981 10983 10985 10987 10989 10993 10997 11001 11004 11007 11009 11012 11015 11017 11019 11021
10718 10730 10742 10754 10767 10778 10801 10794 10828 10829 10842 10861 10873 10882 10896 10906 10915 10924 10936 10943 10951 10953 10956 10961 10964 10967 10972 10975 10978 10980 10983 10984 10987 10990 10995 10999 11002 11004 11007 11010 11012 11014 11016 11018
10685 10706 10711 10728 10742 10759 10760 10788 10795 10807 10826 10848 10855 10868 10886 10893 10904 10912 10921 10931 10939 10946 10948 10954 10958 10960 10965 10970 10974 10977 10980 10982 10984 10988 10991 10995 10999 11002 11005 11007 11009 11011 11013 11015
10656 10677 10684 10693 10720 10732 10735 10756 10763 10784 10802 10824 10840 10853 10863 10875 10887 10897 10907 10914 10923 10929 10936 10942 10948 10954 10959 10965 10969 10973 10976 10978 10981 10983 10986 10989 10994 10997 11001 11003 11005 11008 11010 11012
10620 10645 10655 10669 10685 10688 10704 10730 10734 10750 10782 10804 10821 10827 10841 10856 10868 10880 10888 10899 10910 10917 10924 10930 10937 10946 10953 10957 10963 10967 10971 10973 10975 10978 10981 10984 10988 10993 10996 10998 11000 11003 11006 11009
10592 10618 10629 10633 10650 10661 10680 10706 10717 10736 10758 10776 10798 10816 10823 10837 10855 10867 10876 10886 10897 10905 10912 10921 10930 10939 10945 10949 10954 10961 10965 10968 10971 10974 10977 10980 10983 10986 10989 10993 10996 10998 11001 11004
10562 10575 10590 10604 10608 10609 10638 10662 10675 10689 10721 10750 10778 10788 10795 10823 10841 10850 10856 10869 10879 10890 10900 10910 10921 10931 10936 10942 10947 10952 10958 10963 10966 10970 10973 10976 10978 10979 10982 10988 10992 10994 10997 11000
10530 10545 10554 10567 10575 10596 10615 10638 10655 10685 10707 10728 10753 10761 10783 10802 10819 10828 10832 10849 10860 10875 10890 10899 10911 10920 10927 10933 10939 10945 10951 10956 10959 10963 10966 10969 10972 10975 10978 10981 10985 10988 10991 10995
10502 10516 10522 10539 10545 10568 10585 10605 10625 10649 10684 10706 10731 10753 10762 10776 10792 10800 10813 10825 10854 10869 10879 10890 10896 10907 10918 10925 10930 10936 10941 10947 10953 10955 10958 10962 10967 10970 10973 10975 10977 10981 10985 10989
10477 10489 10494 10511 10514 10530 10551 10575 10597 10622 10648 10675 10701 10731 10742 10759 10774 10781 10789 10818 10844 10852 10868 10878 10887 10897 10906 10913 10920 10927 10932 10938 10944 10947 10952 10956 10960 10964 10966 10969 10972 10972 10976 10981
10454 10462 10468 10483 10486 10500 10540 10553 10565 10584 10614 10646 10672 10679 10703 10725 10739 10771 10790 10816 10826 10833 10849 10859 10870 10882 10894 10902 10912 10919 10926 10930 10933 10938 10943 10949 10952 10955 10959 10962 10965 10966 10969 10972
10434 10441 10449 10458 10465 10488 10516 10504 10534 10562 10594 10620 10641 10663 10685 10705 10719 10759 10769 10790 10803 10821 10834 10846 10858 10870 10881 10890 10898 10907 10915 10920 10925 10930 10934 10939 10943 10947 10951 10954 10956 10958 10963 10964
10420 10425 10435 10440 10455 10472 10482 10499 10521 10547 10569 10580 10609 10635 10654 10672 10705 10731 10738 10761 10783 10806 10819 10833 10845 10859 10868 10875 10884 10894 10902 10911 10916 10919 10924 10929 10935 10940 10943 10945 10948 10951 10954 10956
10408 10413 10418 10427 10440 10453 10463 10476 10504 10527 10542 10570 10598 10629 10648 10663 10686 10697 10728 10749 10772 10790 10805 10821 10832 10845 10853 10863 10872 10882 10891 10900 10900 10908 10917 10922 10926 10931 10935 10938 10942 10944 10945 10948
10400 10404 10407 10415 10424 10437 10455 10472 10489 10509 10526 10550 10573 10594 10620 10638 10691 10708 10715 10737 10757 10776 10791 10803 10818 10831 10839 10849 10860 10867 10878 10880 10892 10900 10907 10912 10916 10922 10926 10929 10933 10936 10937 10939
10395 10397 10402 10407 10417 10427 10438 10449 10468 10486 10507 10529 10552 10575 10598 10630 10672 10676 10698 10718 10740 10757 10776 10789 10803 10814 10826 10838 10849 10856 10863 10874 10884 10892 10898 10902 10907 10913 10917 10920 10923 10926 10928 10931
10392 10394 10399 10406 10412 10420 10432 10444 10459 10477 10493 10509 10533 10563 10591 10627 10642 10654 10679 10699 10722 10741 10761 10776 10787 10801 10815 10828 10838 10846 10859 10866 10874 10882 10888 10892 10897 10901 10906 10909 10912 10915 10917 10921
10391 10395 10398 10402 10409 10418 10427 10439 10452 10467 10482 10503 10529 10552 10580 10603 10622 10642 10663 10684 10703 10730 10748 10763 10775 10788 10800 10812 10823 10831 10841 10850 10860 10869 10875 10880 10886 10889 10893 10897 10901 10903 10906 10909
10395 10397 10400 10403 10409 10416 10427 10439 10449 10462 10477 10495 10516 10540 10566 10592 10612 10634 10653 10671 10690 10713 10732 10747 10762 10774 10785 10797 10809 10817 10827 10838 10849 10856 10863 10867 10872 10877 10882 10886 10888 10891 10894 10896